Nos coordonnées

Nous sommes à votre écoute du lundi au dimanche de 10:00 à 19:00 au :

+32 (0)495 19 89 53

 

Adresse d'exploitation Adresse de facturation
Chaussée de Nivelles, 629
6230 Buzet
Belgique
Kouter 107/2
9000 Gent
Belgique

contact @ blackhelicopters.be (n'oubliez pas de supprimer les espaces)


Nous retrouver

Il est très fortement conseillé de nous appeler avant de venir sur le terrain, nous pouvons être en mission ou en vol!

 

La carte ci-dessous est interactive, cherchez vos itinéraires, déplacez la pour vous retrouver.

News

Votre panier

Le panier est vide

Météo Charleroi

METAR
EBCI 040950Z 19015KT 9999 FEW018 BKN025 05/02 Q0983 NOSIG =
EBCI 040510Z 0406/0512 19016KT 9999 SCT015 SCT025 TEMPO 0406/0407 20020G35KT PROB30 TEMPO 0406/0410 4500 SHRA TEMPO 0407/0411 19016G26KT BECMG 0419/0521 14005KT PROB30 TEMPO 0504/0509 SCT008 BKN012
TAF
EBCI 040510Z 0406/0512 19016KT 9999 SCT015 SCT025 TEMPO 0406/0407 20020G35KT PROB30 TEMPO 0406/0410 4500 SHRA TEMPO 0407/0411 19016G26KT BECMG 0419/0521 14005KT PROB30 TEMPO 0504/0509 SCT008 BKN012 =
Lever / Coucher : 07:26 / 15:41 UTC (Buzet 2020-12-04)